Location: Krakow
(50.0830°N, 19.9170°E)
Time: 21:32:42
(UTC+01:00)

Altair - Pass Details

Date: 06 December 2023
Orbit: 1501 x 1682 km, 47.2° (Epoch: 03 March)

Event Time Altitude Azimuth Distance (km) Brightness Sun altitude
Rises 09:45:45 0° 256° (WSW) 4,799 10.0 13.8°
Reaches altitude 10° 09:48:54 10° 255° (WSW) 3,790 9.5 14.0°
Maximum altitude 09:58:26 74° 172° (S) 1,595 8.1 14.6°
Drops below altitude 10° 10:07:39 10° 90° (E) 3,672 9.8 15.1°
Sets 10:10:39 0° 89° (E) 4,644 10.3 15.3°
